sat.trackr.live / text

‹ back to catalog

STARLINK-32722

NORAD 62450 · 2024-251U

PAYLOAD ACTIVE UNKNOWN

§ Identity

Operator
Country
US
Launch date
2024-12-29
Launch site
AFWTR
Launch vehicle
Mass (kg)
RCS (m²)

Purposes: comms

External: N2YO · Heavens-Above · Gunter

§ Orbital elements

Epoch: 2026-05-24T19:14:23.123328Z

Period
94.10 min
Inclination
53.1634°
Eccentricity
0.0000639
Mean motion
15.30206141 rev/d
Perigee alt
474.8 km
Apogee alt
475.6 km
Semi-major
6,853.3 km
B*
4.4763e-4
RAAN
341.6123°
Arg perigee
127.4306°
Mean anomaly
232.6753°
Rev number
7,923

§ Raw data

STARLINK-327221 62450U 24251U   26144.80165652  .00012924  00000+0  44763-3 0  99952 62450  53.1634 341.6123 0000639 127.4306 232.6753 15.30206141 79234

JSON: /api/v1/satellites/62450 · /tle

For live sub-satellite position, see the globe view (requires WebGL).

§ Visibility from observer

Set your observer location to see the next 7 days of passes ≥ 10°. The values pass through the URL so the page stays shareable.

No JS? Fill the form by hand. The geolocation button needs JavaScript.